Regional Weather Roundup
Issued by NWS State College, PA

Home | Current Version | Previous Version | Text Only | Print | Product List | Glossary On
Versions: 1 2 3 4 5 6 7 8 9 10 11 12 13 14 15 16 17 18 19 20 21 22 23 24 25 26 27 28 29 30 31 32 33 34 35 36 37 38 39 40 41 42 43 44 45 46 47 48 49 50
000
ASUS41 KCTP 280910
RWRCTP

REGIONAL WEATHER ROUNDUP
NATIONAL WEATHER SERVICE STATE COLLEGE PA
500 AM EDT SAT MAR 28 2015

Note: "fair" indicates few or no clouds below 12,000 feet with no
significant weather and/or obstructions to visibility.

* = STATION THAT DOES NOT REPORT PRECIPITATION /E.G. RAIN...SNOW...ETC/
    THUNDER OR FOG.

PAZ002>004-007>009-013>016-020>023-029>032-281000-
WESTERN PENNSYLVANIA

CITY           SKY/WX    TMP DP  RH WIND       PRES   REMARKS
ERIE           CLOUDY    17   9  70 NW7       30.05S WCI   8
MEADVILLE      CLOUDY    13   7  77 VRB7      29.99R WCI   3
FRANKLIN*      CLOUDY    12   7  79 NW7       29.97S WCI   2
NEW CASTLE     CLOUDY    14   5  67 NW7       30.04S WCI   4
BEAVER COUNTY  NOT AVBL
BUTLER*        MOCLDY    16   3  57 NW6       30.00R WCI   7
PITTSBURGH INT FLURRIES  16   7  67 NW10      30.00R WCI   4
PITTSBURGH     PTCLDY    15   2  56 NW12G22   29.98R WCI   2
INDIANA*       MOCLDY    16   5  62 NW12G20   29.98R WCI   3
LATROBE        CLEAR     16   5  62 NW12      29.99R WCI   3
WASHINGTON CO* CLEAR     16   3  57 NW13      30.02R WCI   2
$$

PAZ004>006-010>012-017>019-024>028-033>037-041-042-045-046-049>053-281000-
CENTRAL PENNSYLVANIA

CITY           SKY/WX    TMP DP  RH WIND       PRES   REMARKS
BRADFORD       LGT SNOW  13   8  81 NW10      29.87S WCI   0
DUBOIS         CLOUDY    17   9  70 NW7       29.88S WCI   8
CLEARFIELD     CLOUDY    19  11  70 NW7       29.89S WCI  10
JOHNSTOWN      MOCLDY    14   6  70 NW15      29.83S WCI  -1
ALTOONA        CLEAR     19   7  59 NW13      29.89R WCI   6
STATE COLLEGE  CLOUDY    23   9  55 NW10      29.89R WCI  12
WILLIAMSPORT   CLOUDY    27  16  63 N12       29.89R
SELINSGROVE    FLURRIES  30  21  69 N15G21    29.88R
FT INDIANTOWN  MIX PCPN  32  23  69 NW8       29.84S
CAPITAL CITY   CLOUDY    32  22  66 N7        29.87R
HARRISBURG     CLOUDY    32  23  69 NW13      29.86R
YORK           CLOUDY    31  20  63 NW16G22   29.85S
$$

PAZ038>040-043-044-047-048-054-055-060>062-067>071-281000-
EASTERN PENNSYLVANIA

CITY           SKY/WX    TMP DP  RH WIND       PRES   REMARKS
SCRANTON       CLOUDY    29  18  63 N10       29.82R
MOUNT POCONO   PTCLDY    24  15  68 N13G20    29.74R WCI  12
ALLENTOWN      CLOUDY    32  19  58 N9G20     29.81S
QUAKERTOWN*    CLOUDY    32  21  64 N8        29.81S
READING        CLOUDY    33  19  56 N10       29.83S
LANCASTER      LGT SNOW  32  27  81 N6        29.83S
COATESVILLE    CLOUDY    32  23  69 N8        29.81S
POTTSTOWN      CLOUDY    32  21  64 NW12      29.82F
BLUE BELL      CLOUDY    36  27  69 NW8       29.79S
DOYLESTOWN     PTCLDY    31  23  72 NW8       29.78S
WILLOW GROVE   NOT AVBL
NORTH PHILA    CLOUDY    37  21  52 N15       29.81R
PHILADELPHIA   CLOUDY    37  24  59 N17G25    29.80S
$$



USA.gov is the U.S. government's official web portal to all federal, state and local government web resources and services.